Showing default

COSMOS 2477 (GLONASS), 37868

Orbit data source: Space-Track

COSMOS 2477 (GLONASS), 37868 is a Commonwealth of Independent States-origin payload satellite in MEO that was launched on Fri, 04 Nov 2011 UTC via a PROTON-M/BRIZ-M launch vehicle from the Tyuratam Missile And Space Complex (TTMTR). Payload-class satellites include a variety of spacecraft equipped with specific instruments for various scientific and technological missions. These include communications satellites like Starlink; space stations such as the ISS; scientific satellites like the Hubble; Earth observation satellites from companies like Planet Labs, Umbra, and HawkEye 360; GPS; miniature CubeSats for education and research; and military/defense satellites.

Loading next visibility...
Identifier
37868, 2011-064B
Orbit
MEO
Country
Flag of CISCIS
Related business
Manufacturer
Resehetnev ISS
Mission
Operational Defense Navigation
Bus & Motor
URAGAN, Unknown motor
Mass
1,450 kg wet, ~1,200 kg dry
Launch date (UTC)
2011-11-04 (14 years ago)
Launch vehicle
PROTON-M/BRIZ-M
Launch site
Tyuratam Missile And Space Complex (TTMTR)
Object type
Payload
Rocket body
Debris
Shape & HBR
Cyl + 1 Ant + 2 Pan, 3.9 m
Radar Cross Section
8.467 m², Large (>1 m²)

Expand to show TLE details & history
Last TLE update: 1 day ago

TLE from 1 day ago
0 COSMOS 2477 (GLONASS)
1 37868U 11064B   25257.99211234  .00000035  00000-0  00000+0 0  9993
2 37868  65.1188  82.2495 0018982 231.2785 313.1486  2.13102914107893
Epoch: 2025-09-14T23:48Z
TLE epoch observation values (Epoch: 2025-09-14T23:48:38.506Z)
Latitude
-3.88573°
Longitude
-87.31441°
Altitude
19,097.972 km
Speed
3.958 km/s
True Right ascension
17h 36m 11s
True Declination
-3° 52' 45"
Sunlit
Object was in daylight at epoch
Visualization orbit readout
Latitude
Unknown
Longitude
Unknown
Altitude
Unknown
Speed
Unknown
Apparent Right ascension
Unknown
Apparent Declination
Unknown
Sunlit
N/A
Visualization observer readout
Local Sidereal Time
18:53:35
Azimuth
Unknown
Elevation
Unknown
Doppler factor
Unknown
Orbital elements
Apogee altitude
19,177.844 km
Perigee altitude
19,081.007 km
Semi-major axis
25,507.562 km
Eccentricity
0.0019
Inclination
65.1188°
RAAN
82.2495°
Arg. of periapsis
231.2785°
True anomaly
312.98965°
Mean anomaly
313.1486°
Eccentric anomaly
313.06915°
Mean motion
0.53277 °/min
Orbital period
675.71 mins
BSTAR
0
Loading maneuver chart data...
Computing Atmospheric mass density...
Loading historical data...
Loading historical data...
Loading historical data...
Loading historical data...
Loading historical data...
Loading historical data...
Loading historical data...

Documentation

Showing up to 5 results
|